This is the latest recevied weather packets stored in our database for station/object WA7CUG. If no packets are shown the sender has not sent any weather packets the latest 10 day(s).
| Time | Temp. | Humidity | Pressure | Rain* | Wind** | Luminosity | Snow |
|---|---|---|---|---|---|---|---|
| 1778192158 | 27.78° C | 30% | 1012.4 hPa | 0 mm | - | 617 W/m² | - |
| 1778191855 | 27.22° C | 29% | 1012.7 hPa | 0 mm | - | 626 W/m² | - |
| 1778191553 | 26.67° C | 32% | 1012.9 hPa | 0 mm | - | 631 W/m² | - |
| 1778191250 | 27.22° C | 31% | 1012.9 hPa | 0 mm | - | 639 W/m² | - |
| 1778190946 | 26.67° C | 29% | 1012.9 hPa | 0 mm | - | 647 W/m² | - |
| 1778190644 | 26.67° C | 32% | 1012.8 hPa | 0 mm | - | 655 W/m² | - |
| 1778190341 | 26.67° C | 29% | 1013.2 hPa | 0 mm | - | 653 W/m² | - |
| 1778190037 | 26.67° C | 31% | 1013.3 hPa | 0 mm | - | 663 W/m² | - |
| 1778189733 | 26.67° C | 33% | 1013 hPa | 0 mm | - | 667 W/m² | - |
| 1778189431 | 26.11° C | 32% | 1013.2 hPa | 0 mm | - | 672 W/m² | - |
| 1778189126 | 26.67° C | 31% | 1013.2 hPa | 0 mm | - | 678 W/m² | - |
| 1778188823 | 26.11° C | 29% | 1013.3 hPa | 0 mm | - | 681 W/m² | - |
| 1778188520 | 26.11° C | 32% | 1013.4 hPa | 0 mm | - | 683 W/m² | - |
| 1778188216 | 25.56° C | 31% | 1013.4 hPa | 0 mm | - | 687 W/m² | - |
| 1778187914 | 26.11° C | 33% | 1013.6 hPa | 0 mm | - | 690 W/m² | - |
| 1778187610 | 25.56° C | 34% | 1013.7 hPa | 0 mm | - | 692 W/m² | - |
| 1778187307 | 26.11° C | 33% | 1013.6 hPa | 0 mm | - | 695 W/m² | - |
| 1778187003 | 26.11° C | 30% | 1013.6 hPa | 0 mm | - | 697 W/m² | - |
| 1778186700 | 26.67° C | 34% | 1013.8 hPa | 0 mm | - | 700 W/m² | - |
| 1778186397 | 26.67° C | 28% | 1013.8 hPa | 0 mm | - | 701 W/m² | - |
| 1778186095 | 26.67° C | 28% | 1014 hPa | 0 mm | - | 701 W/m² | - |
| 1778185791 | 26.67° C | 34% | 1013.9 hPa | 0 mm | - | 703 W/m² | - |
| 1778185488 | 25.56° C | 33% | 1014 hPa | 0 mm | - | 703 W/m² | - |
| 1778185184 | 25.56° C | 31% | 1014.1 hPa | 0 mm | - | 701 W/m² | - |
| 1778184879 | 25.56° C | 29% | 1014 hPa | 0 mm | - | 701 W/m² | - |
* Rain latest hour (hover to see other rain measurements)
** Current wind speed in m/s (hover to see current wind gust speed)